Home   Weather   Mexicali   Past weeks

Flag for Mexico Past Weather in Mexicali, Baja California, Mexico — Yesterday and Last 2 Weeks

Now
59 °F

Sunny.


Feels Like: 58 °F
Forecast: 58 / 89 °F
Wind: 7 mph from West

Location: Imperial County Airport

Current Time: Oct 22, 2017 at 8:55:19 am

Latest Report: Oct 22, 2017 at 7:53 am


Visibility: 10 mi

Pressure: 30.13 "Hg

Humidity: 35%

Dew Point: 31 °F

Location of MexicaliLocation

Past Weather in Mexicali — Graph

°F

Mexicali Temperature Yesterday

Maximum temperature yesterday: 85 °F (at 2:53 pm)
Minimum temperature yesterday: 59 °F (at 6:53 am)
Average temperature yesterday: 71 °F

High & Low Weather Summary for the Past Weeks

 TemperatureHumidityPressure
High100 °F (Oct 18, 3:53 pm)70% (Oct 12, 5:53 am)30.13 "Hg (Oct 12, 5:53 am)
Low53 °F (Oct 10, 6:53 am)7% (Oct 17, 1:53 pm)29.53 "Hg (Oct 8, 4:53 pm)
Average77 °F26%29.86 "Hg
* Reported Oct 7 6:53 am — Oct 22 6:53 am, Mexicali. Weather by CustomWeather, © 2017

Note: Actual official high and low records may vary slightly from our data, if they occured in-between our weather recording intervals... More about our weather records

Advertising

Mexicali Weather History for the Previous 24 Hours

Scroll right to see more
 ConditionsComfort  
Time TempWeatherWind HumidityBarometerVisibility
6:53 am
Sun, Oct 22
55 °FSunny.8 mph37%30.11 "Hg10 mi
5:53 am56 °FClear.7 mph37%30.10 "Hg10 mi
4:53 am56 °FClear.5 mph39%30.10 "Hg10 mi
3:53 am59 °FClear.7 mph32%30.09 "Hg10 mi
2:53 am61 °FClear.5 mph30%30.09 "Hg10 mi
1:53 am61 °FClear.7 mph34%30.09 "Hg10 mi
12:53 am60 °FClear.3 mph41%30.08 "Hg10 mi
11:53 pm
Sat, Oct 21
62 °FClear.5 mph31%30.08 "Hg10 mi
10:53 pm65 °FClear.7 mph27%30.08 "Hg10 mi
9:53 pm68 °FClear.7 mph25%30.07 "Hg10 mi
8:53 pm68 °FClear.3 mph31%30.05 "Hg10 mi
7:53 pm70 °FClear.3 mph28%30.03 "Hg7 mi
6:53 pm73 °FClear.3 mph26%30.02 "Hg9 mi
5:53 pm80 °FSunny.3 mph15%30.00 "Hg10 mi
4:53 pm84 °FSunny.6 mph12%29.99 "Hg10 mi
3:53 pm85 °FSunny.8 mph11%29.99 "Hg10 mi
2:53 pm85 °FSunny.7 mph12%29.98 "Hg10 mi
1:53 pm84 °FSunny.7 mph13%29.99 "Hg10 mi
12:53 pm83 °FSunny.3 mph15%30.01 "Hg10 mi
11:53 am80 °FSunny.6 mph16%30.02 "Hg10 mi
10:53 am79 °FSunny.6 mph27%30.02 "Hg10 mi
9:53 am74 °FSunny.7 mph43%30.01 "Hg10 mi
8:53 am70 °FSunny.5 mph44%29.99 "Hg10 mi
Weather by CustomWeather, © 2017

See weather overview